Timestamp,Temp,Chill,HIndex,Humid,Dewpt,Wind,HiWind,WindDir,Rain,RainRate,Barom,Solar,ET,UV,InsideTemp,InsideHumid
2016-05-07 00:00:00,50.2,50.2,50.2,82,44.9195149682587,3,10,0,0,0,29.589,0,0.001,0,61.8,53
2016-05-07 00:05:00,50,50,50,82,44.7242211277281,4,10,22.5,0,0,29.589,0,0,0,61.6,53
2016-05-07 00:10:00,49.8,47.9830812575739,49.8,83,44.8473038967596,5,11,0,0,0,29.587,0,0,0,61.6,53
2016-05-07 00:15:00,49.6,47.7481694943238,49.6,83,44.65172348951,5,10,0,0,0,29.587,0,0,0,61.6,53
2016-05-07 00:20:00,49.5,48.2926677047116,49.5,83,44.5539325543179,4,10,0,0,0,29.585,0,0,0,61.6,53
2016-05-07 00:25:00,49.4,47.5132577310738,49.4,83,44.4561411314096,5,12,0,0,0,29.584,0,0,0,61.4,53
2016-05-07 00:30:00,49.2,47.946119311815,49.2,84,44.5747363688933,4,10,0,0,0,29.582,0,0,0,61.3,53
2016-05-07 00:35:00,49.2,47.2783459678237,49.2,84,44.5747363688933,5,9,337.5,0,0,29.584,0,0,0,61.3,54
2016-05-07 00:40:00,49.1,47.8306031808494,49.1,84,44.4768038298388,4,11,22.5,0,0,29.581,0,0,0,61.3,54
2016-05-07 00:45:00,49.1,47.8306031808494,49.1,84,44.4768038298388,4,10,315,0,0,29.579,0,0,0,61.1,54
2016-05-07 00:50:00,49,49,49,84,44.378870833424,3,7,315,0,0,29.581,0,0,0,61.1,54
2016-05-07 00:55:00,48.9,47.5995709189183,48.9,84,44.2809373796458,4,10,0,0,0,29.581,0,0,0,60.8,54
2016-05-07 01:00:00,48.8,46.8085224413236,48.8,84,44.183003468501,5,9,22.5,0,0,29.582,0,0.001,0,60.8,54
2016-05-07 01:05:00,48.8,48.8,48.8,84,44.183003468501,3,7,0,0,0,29.577,0,0,0,60.5,54
2016-05-07 01:10:00,48.7,47.3685386569873,48.7,85,44.3952802210758,4,10,0,0,0,29.575,0,0,0,60.3,55
2016-05-07 01:15:00,48.6,48.6,48.6,85,44.297207251593,3,8,22.5,0,0,29.572,0,0,0,60.2,55
2016-05-07 01:20:00,48.5,46.4561547964485,48.5,85,44.1991338548766,5,10,0,0,0,29.574,0,0,0,60,55
2016-05-07 01:25:00,48.5,47.1375063950562,48.5,85,44.1991338548766,4,9,315,0,0,29.573,0,0,0,60.2,55
2016-05-07 01:30:00,48.4,46.3386989148235,48.4,85,44.1010600309239,5,10,22.5,0,0,29.572,0,0,0,60.2,55
2016-05-07 01:35:00,48.3,45.6429201474242,48.3,85,44.0029857797321,6,9,0,0,0,29.572,0,0,0,60,55
2016-05-07 01:40:00,48.2,48.2,48.2,85,43.9049111012983,3,8,315,0,0,29.573,0,0,0,60.2,55
2016-05-07 01:45:00,48.2,46.7909580021595,48.2,86,44.2112402845576,4,8,0,0,0,29.573,0,0,0,59.9,55
2016-05-07 01:50:00,48.1,48.1,48.1,86,44.1130285132416,2,6,0,0,0,29.573,0,0,0,59.9,56
2016-05-07 01:55:00,48,48,48,86,44.0148163445971,2,5,337.5,0,0,29.576,0,0,0,59.7,56
2016-05-07 02:00:00,47.9,47.9,47.9,86,43.9166037786215,3,7,337.5,0,0,29.574,0,0.001,0,59.6,56
2016-05-07 02:05:00,47.8,45.6339636250733,47.8,86,43.8183908153124,5,10,22.5,0,0,29.577,0,0,0,59.3,57
2016-05-07 02:10:00,47.7,46.2133773473318,47.7,86,43.7201774546675,4,8,0,0,0,29.574,0,0,0,59.1,57
2016-05-07 02:15:00,47.6,45.3990518618233,47.6,87,43.9243593480162,5,8,45,0,0,29.576,0,0,0,59,58
2016-05-07 02:20:00,47.4,44.5710831766574,47.4,87,43.7276602929584,6,10,45,0,0,29.572,0,0,0,58.8,58
2016-05-07 02:25:00,47.4,47.4,47.4,87,43.7276602929584,3,8,45,0,0,29.57,0,0,0,58.7,58
2016-05-07 02:30:00,47.3,47.3,47.3,88,43.9282574862621,1,4,45,0,0,29.572,0,0,0,58.4,59
2016-05-07 02:35:00,47.3,47.3,47.3,88,43.9282574862621,3,9,337.5,0,0,29.57,0,0,0,58.4,59
2016-05-07 02:40:00,47.2,45.6357966925041,47.2,88,43.8297732101818,4,8,0,0,0,29.57,0,0,0,58.5,59
2016-05-07 02:45:00,47.2,44.9292283353232,47.2,88,43.8297732101818,5,10,22.5,0,0,29.572,0,0,0,58.2,59
2016-05-07 02:50:00,47.2,45.6357966925041,47.2,88,43.8297732101818,4,8,22.5,0,0,29.574,0,0,0,58.1,60
2016-05-07 02:55:00,47.1,45.5202805615386,47.1,88,43.7312885959343,4,9,22.5,0,0,29.571,0,0,0,58.1,60
2016-05-07 03:00:00,47.1,45.5202805615386,47.1,89,44.0269928166942,4,10,315,0,0,29.569,0,0.001,0,58.1,60
2016-05-07 03:05:00,47.1,45.5202805615386,47.1,89,44.0269928166942,4,10,45,0,0,29.57,0,0,0,57.9,60
2016-05-07 03:10:00,47.1,44.8117724536982,47.1,89,44.0269928166942,5,8,22.5,0,0,29.57,0,0,0,57.7,60
2016-05-07 03:15:00,47,44.6943165720731,47,89,43.9283753368811,5,11,337.5,0,0,29.57,0,0,0,58.1,60
2016-05-07 03:20:00,47,45.404764430573,47,89,43.9283753368811,4,8,337.5,0,0,29.569,0,0,0,58.1,60
2016-05-07 03:25:00,47.1,44.8117724536982,47.1,89,44.0269928166942,5,9,337.5,0,0,29.569,0,0,0,58.2,60
2016-05-07 03:30:00,47.1,44.8117724536982,47.1,89,44.0269928166942,5,11,337.5,0,0,29.568,0,0,0,58.4,60
2016-05-07 03:35:00,47,44.0947111896499,47,89,43.9283753368811,6,10,45,0,0,29.569,0,0,0,58.5,60
2016-05-07 03:40:00,47,44.0947111896499,47,89,43.9283753368811,6,10,0,0,0,29.567,0,0,0,58.2,60
2016-05-07 03:45:00,47,44.0947111896499,47,90,44.2210356670256,6,11,337.5,0,0,29.564,0,0,0,58.4,60
2016-05-07 03:50:00,47,44.6943165720731,47,90,44.2210356670256,5,10,0,0,0,29.566,0,0,0,58.5,60
2016-05-07 03:55:00,47,44.6943165720731,47,90,44.2210356670256,5,9,337.5,0,0,29.565,0,0,0,58.5,60
2016-05-07 04:00:00,47,44.0947111896499,47,90,44.2210356670256,6,11,0,0,0,29.565,0,0.001,0,58.4,60
2016-05-07 04:05:00,47,44.6943165720731,47,90,44.2210356670256,5,9,22.5,0,0,29.567,0,0,0,58.5,60
2016-05-07 04:10:00,47,45.404764430573,47,90,44.2210356670256,4,9,337.5,0,0,29.567,0,0,0,58.4,60
2016-05-07 04:15:00,47,47,47,90,44.2210356670256,2,7,292.5,0,0,29.569,0,0,0,58.5,60
2016-05-07 04:20:00,47,44.0947111896499,47,90,44.2210356670256,6,11,22.5,0,0,29.569,0,0,0,58.4,59
2016-05-07 04:25:00,47,47,47,90,44.2210356670256,3,8,315,0,0,29.569,0,0,0,58.4,59
2016-05-07 04:30:00,47,44.6943165720731,47,90,44.2210356670256,5,10,337.5,0,0,29.57,1,0,0,58.4,59
2016-05-07 04:35:00,46.9,43.975618192898,46.9,90,44.1222865975451,6,12,0,0,0,29.569,5,0,0,58.4,59
2016-05-07 04:40:00,46.9,45.2892482996075,46.9,90,44.1222865975451,4,12,22.5,0,0,29.572,8,0,0,58.4,59
2016-05-07 04:45:00,46.9,43.975618192898,46.9,90,44.1222865975451,6,13,0,0,0,29.572,11,0,0,58.5,59
2016-05-07 04:50:00,46.9,44.5768606904481,46.9,90,44.1222865975451,5,9,337.5,0,0,29.569,15,0,0,58.4,59
2016-05-07 04:55:00,46.9,45.2892482996075,46.9,90,44.1222865975451,4,9,337.5,0,0,29.571,18,0,0,58.4,59
2016-05-07 05:00:00,47,47,47,90,44.2210356670256,3,9,22.5,0,0,29.571,20,0,0,58.4,59
2016-05-07 05:05:00,47,45.404764430573,47,90,44.2210356670256,4,9,337.5,0,0,29.57,22,0,0,58.4,59
2016-05-07 05:10:00,47,43.573925792056,47,90,44.2210356670256,7,11,0,0,0,29.57,24,0,0,58.4,59
2016-05-07 05:15:00,47,44.6943165720731,47,90,44.2210356670256,5,11,315,0,0,29.567,26,0,0,58.4,60
2016-05-07 05:20:00,47.1,47.1,47.1,90,44.3197844566644,3,9,315,0,0,29.567,31,0,0,58.4,60
2016-05-07 05:25:00,47.2,43.8149556081045,47.2,90,44.4185329664627,7,11,0,0,0,29.567,34,0,0,58.2,60
2016-05-07 05:30:00,47.2,44.9292283353232,47.2,90,44.4185329664627,5,11,22.5,0,0,29.569,36,0,0,58.2,60
2016-05-07 05:35:00,47.2,45.6357966925041,47.2,90,44.4185329664627,4,10,0,0,0,29.572,33,0,0,58.2,60
2016-05-07 05:40:00,47.3,44.4519901799055,47.3,90,44.5172811964217,6,11,0,0,0,29.572,32,0,0,58.2,60
2016-05-07 05:45:00,47.3,43.9354705161287,47.3,90,44.5172811964217,7,10,337.5,0,0,29.57,37,0,0,58.4,60
2016-05-07 05:50:00,47.3,45.0466842169482,47.3,90,44.5172811964217,5,11,315,0,0,29.573,44,0,0,58.4,60
2016-05-07 05:55:00,47.2,43.8149556081045,47.2,90,44.4185329664627,7,11,0,0,0,29.576,40,0,0,58.2,60
2016-05-07 06:00:00,47.3,45.0466842169482,47.3,90,44.5172811964217,5,9,22.5,0,0,29.577,42,0.001,0,58.1,60
2016-05-07 06:05:00,47.3,45.0466842169482,47.3,90,44.5172811964217,5,10,0,0,0,29.579,50,0,0,58.1,60
2016-05-07 06:10:00,47.3,47.3,47.3,90,44.5172811964217,3,8,337.5,0,0,29.579,63,0,0,58.2,60
2016-05-07 06:15:00,47.3,47.3,47.3,90,44.5172811964217,2,5,0,0,0,29.579,66,0,0,58.1,60
2016-05-07 06:20:00,47.3,44.4519901799055,47.3,90,44.5172811964217,6,14,0,0,0,29.579,92,0,0,58.2,60
2016-05-07 06:25:00,47.4,47.4,47.4,90,44.6160291465425,2,7,292.5,0,0,29.58,102,0,0,58.2,60
2016-05-07 06:30:00,47.5,47.5,47.5,90,44.7147768168264,2,6,315,0,0,29.58,108,0,0.3,58.2,60
2016-05-07 06:35:00,47.5,44.1765003321772,47.5,90,44.7147768168264,7,12,337.5,0,0,29.584,108,0,0.5,58.1,60
2016-05-07 06:40:00,47.4,44.055985424153,47.4,90,44.6160291465425,7,12,315,0,0,29.58,99,0,0.6,58.1,60
2016-05-07 06:45:00,47.3,43.9354705161287,47.3,90,44.5172811964217,7,11,337.5,0,0,29.581,93,0,0.6,58.2,60
2016-05-07 06:50:00,47.3,45.0466842169482,47.3,90,44.5172811964217,5,10,337.5,0,0,29.579,80,0,0.6,58.4,59
2016-05-07 06:55:00,47.3,44.4519901799055,47.3,90,44.5172811964217,6,10,315,0,0,29.58,74,0,0.6,58.5,59
2016-05-07 07:00:00,47.4,45.1641400985732,47.4,89,44.3228434027401,5,9,337.5,0,0,29.584,75,0.002,0.7,58.4,59
2016-05-07 07:05:00,47.3,44.4519901799055,47.3,89,44.2242268496223,6,12,45,0,0,29.582,109,0,0.8,58.1,59
2016-05-07 07:10:00,47.5,45.2815959801983,47.5,90,44.7147768168264,5,10,0,0,0,29.585,175,0,0.9,58.4,59
2016-05-07 07:15:00,47.7,44.928362166913,47.7,89,44.618691208726,6,11,0,0,0,29.58,188,0,0.9,58.7,59
2016-05-07 07:20:00,47.8,45.0474551636649,47.8,89,44.7173065262703,6,12,337.5,0,0,29.582,212,0,0.9,58.8,59
2016-05-07 07:25:00,48.1,45.9863312699484,48.1,89,45.0131506255706,5,8,315,0,0,29.583,171,0,1,59.1,59
2016-05-07 07:30:00,48.4,46.3386989148235,48.4,88,45.0115622045973,5,15,0,0,0,29.584,184,0,1.1,59.4,58
2016-05-07 07:35:00,48.2,45.0201046883469,48.2,88,44.8146007537406,7,15,315,0,0,29.582,167,0,1.2,59.3,58
2016-05-07 07:40:00,48.3,45.1406195963712,48.3,88,44.913081648243,7,16,0,0,0,29.58,193,0,1.4,59.3,58
2016-05-07 07:45:00,48.7,46.1192921344317,48.7,88,45.3070018447885,6,11,337.5,0,0,29.578,274,0,1.6,59.3,58
2016-05-07 07:50:00,49.5,46.5867984926621,49.5,87,45.7929270288722,7,12,315,0,0,29.58,438,0,1.9,59.7,58
2016-05-07 07:55:00,49.8,47.4293150987023,49.8,86,45.7825745908858,6,11,22.5,0,0,29.581,405,0,1.8,59.6,58
2016-05-07 08:00:00,50.3,50.3,50.3,85,45.9643896313191,6,12,0,0,0,29.582,456,0.005,2.1,59.9,58
2016-05-07 08:05:00,50.7,50.7,50.7,84,46.0436695736615,5,9,337.5,0,0,29.586,454,0,2.1,59.9,57
2016-05-07 08:10:00,51.5,51.5,51.5,83,46.5096585969083,4,8,0,0,0,29.585,441,0,2.2,60,57
2016-05-07 08:15:00,51.6,51.6,51.6,82,46.2865138052517,6,13,337.5,0,0,29.586,470,0,2.2,60.3,57
2016-05-07 08:20:00,51.5,51.5,51.5,82,46.1888743998296,6,12,315,0,0,29.581,462,0,2.3,60.7,57
2016-05-07 08:25:00,51.7,51.7,51.7,82,46.3841526924408,6,11,315,0,0,29.579,486,0,2.5,60.7,57
2016-05-07 08:30:00,51.8,51.8,51.8,81,46.1571145485142,7,12,0,0,0,29.582,502,0,2.6,60.5,57
2016-05-07 08:35:00,52.6,52.6,52.6,81,46.937055625109,5,10,22.5,0,0,29.579,526,0,2.6,60.5,57
2016-05-07 08:40:00,53.4,53.4,53.4,79,47.0522163093339,5,10,22.5,0,0,29.582,539,0,2.6,60.7,57
2016-05-07 08:45:00,53.7,53.7,53.7,79,47.3437957977889,3,10,0,0,0,29.579,506,0,2.6,60.8,56
2016-05-07 08:50:00,53.7,53.7,53.7,78,47.005405875845,4,11,45,0,0,29.577,433,0,2.6,60.8,56
2016-05-07 08:55:00,54,54,54,77,46.9538547272925,7,11,22.5,0,0,29.577,526,0,2.9,61,56
2016-05-07 09:00:00,53.9,53.9,53.9,77,46.8569624517706,6,11,0,0,0,29.57,556,0.01,3.1,61.1,56
2016-05-07 09:05:00,54.6,54.6,54.6,77,47.5351942118475,5,10,22.5,0,0,29.569,572,0,3.2,61.3,56
2016-05-07 09:10:00,54.5,54.5,54.5,76,47.0909279030474,6,12,22.5,0,0,29.571,577,0,3.2,61.3,56
2016-05-07 09:15:00,54.6,54.6,54.6,77,47.5351942118475,6,11,337.5,0,0,29.569,587,0,3.3,61.4,56
2016-05-07 09:20:00,55.1,55.1,55.1,76,47.6713358396165,6,11,0,0,0,29.568,581,0,3.4,61.8,56
2016-05-07 09:25:00,55.6,55.6,55.6,76,48.1549896856731,5,9,315,0,0,29.566,642,0,3.4,61.9,56
2016-05-07 09:30:00,55.8,55.8,55.8,75,47.9950244844898,7,13,45,0,0,29.566,628,0,3.6,61.9,56
2016-05-07 09:35:00,56.4,56.4,56.4,74,48.215927155295,5,11,45,0,0,29.561,643,0,3.7,61.9,56
2016-05-07 09:40:00,56.6,56.6,56.6,74,48.4087527262034,7,11,22.5,0,0,29.561,650,0,3.7,62.1,56
2016-05-07 09:45:00,56.9,56.9,56.9,73,48.3343828353334,6,12,0,0,0,29.564,598,0,3.5,62.2,56
2016-05-07 09:50:00,56.5,56.5,56.5,74,48.3123403265171,7,10,22.5,0,0,29.564,651,0,3.8,62.4,56
2016-05-07 09:55:00,56.9,56.9,56.9,74,48.697985296141,6,12,22.5,0,0,29.563,748,0,4,62.4,56
2016-05-07 10:00:00,57.7,57.7,57.7,73,49.1043735563461,5,10,22.5,0,0,29.561,715,0.013,4.2,62.7,56
2016-05-07 10:05:00,58.3,58.3,58.3,71,48.9367894820753,4,8,45,0,0,29.561,400,0,3,63,55
2016-05-07 10:10:00,58.4,58.4,58.4,71,49.0327082416558,5,10,315,0,0,29.56,663,0,4,63.2,55
2016-05-07 10:15:00,58.2,58.2,58.2,71,48.8408698516465,6,11,0,0,0,29.556,765,0,4.3,63.6,55
2016-05-07 10:20:00,59,59,59,71,49.6082025119869,4,8,22.5,0,0,29.56,770,0,4.6,64,54
2016-05-07 10:25:00,61.2,61.2,61.2,68,50.5506972351095,2,9,67.5,0,0,29.558,782,0,4.7,64.3,54
2016-05-07 10:30:00,61.3,61.3,61.3,67,50.2467203291833,4,9,0,0,0,29.558,826,0,4.9,64.8,54
2016-05-07 10:35:00,60.4,60.4,60.4,68,49.7875111316028,4,10,45,0,0,29.557,776,0,4.7,64.9,53
2016-05-07 10:40:00,59.6,59.6,59.6,70,49.802066471543,7,15,0,0,0,29.555,781,0,4.9,65.1,53
2016-05-07 10:45:00,59.9,59.9,59.9,69,49.7023726184246,5,11,67.5,0,0,29.554,791,0,4.8,65.3,53
2016-05-07 10:50:00,60.2,60.2,60.2,70,50.3765132508471,5,10,45,0,0,29.553,732,0,4.6,65.3,54
2016-05-07 10:55:00,60.9,60.9,60.9,68,50.2645097410898,5,10,22.5,0,0,29.555,818,0,5.1,65.3,54
2016-05-07 11:00:00,60.4,60.4,60.4,69,50.1802362142817,5,10,0,0,0,29.554,623,0.016,4.2,65.3,54
2016-05-07 11:05:00,59.5,59.5,59.5,70,49.7063221762295,7,11,45,0,0,29.554,320,0,3.2,65.3,54
2016-05-07 11:10:00,59.6,59.6,59.6,71,50.1836654347648,6,11,22.5,0,0,29.554,742,0,5.3,65.4,54
2016-05-07 11:15:00,60.3,60.3,60.3,70,50.4722512154213,5,10,45,0,0,29.552,769,0,5.1,65.6,54
2016-05-07 11:20:00,60.9,60.9,60.9,70,51.0466600121727,5,13,45,0,0,29.549,773,0,5,65.8,54
2016-05-07 11:25:00,61.9,61.9,61.9,69,51.613686254809,4,9,90,0,0,29.548,749,0,5.2,66.1,53
2016-05-07 11:30:00,63.7,63.7,63.7,66,52.1229774653013,2,7,112.5,0,0,29.547,799,0,5.3,66.4,53
2016-05-07 11:35:00,62.3,62.3,62.3,66,50.7925232052579,8,14,22.5,0,0,29.55,836,0,5.3,66.6,53
2016-05-07 11:40:00,62.7,62.7,62.7,67,51.5797412449348,4,11,337.5,0,0,29.545,830,0,4.9,66.6,53
2016-05-07 11:45:00,63.9,63.9,63.9,66,52.3130256898248,3,11,45,0,0,29.545,802,0,5.4,66.7,53
2016-05-07 11:50:00,63.4,63.4,63.4,66,51.8378973150333,5,10,45,0,0,29.543,754,0,4.9,66.9,53
2016-05-07 11:55:00,63.4,63.4,63.4,67,52.2461776855952,5,12,0,0,0,29.54,802,0,5.4,66.9,53
2016-05-07 12:00:00,63.9,63.9,63.9,67,52.7221735076838,5,10,22.5,0,0,29.543,743,0.017,5,67,53
2016-05-07 12:05:00,63.7,63.7,63.7,67,52.5317781993841,6,10,0,0,0,29.543,825,0,5.5,67,53
2016-05-07 12:10:00,64,64,64,65,51.9932407234184,5,10,22.5,0,0,29.542,844,0,5.6,67.2,53
2016-05-07 12:15:00,64.1,64.1,64.1,66,52.5030697473174,6,13,0,0,0,29.54,809,0,5.4,67.4,53
2016-05-07 12:20:00,64.5,64.5,64.5,65,52.4674585195491,5,13,0,0,0,29.538,815,0,5.3,67.4,53
2016-05-07 12:25:00,64.8,64.8,64.8,65,52.7519762739135,4,10,0,0,0,29.537,778,0,5.3,67.5,53
2016-05-07 12:30:00,64.4,64.4,64.4,65,52.3726171142575,7,12,22.5,0,0,29.537,817,0,5.4,67.7,53
2016-05-07 12:35:00,64.3,64.3,64.3,66,52.6931096379161,5,13,0,0,0,29.536,808,0,5.3,67.7,53
2016-05-07 12:40:00,65.2,65.2,65.2,65,53.1313182035605,5,11,0,0,0,29.537,788,0,5.2,67.7,53
2016-05-07 12:45:00,64.6,64.6,64.6,65,52.56229884791,7,11,22.5,0,0,29.538,822,0,5.3,67.7,53
2016-05-07 12:50:00,64.9,64.9,64.9,65,52.8468133715928,5,11,45,0,0,29.54,563,0,4.1,67.7,53
2016-05-07 12:55:00,64.9,64.9,64.9,65,52.8468133715928,3,8,45,0,0,29.535,561,0,4.3,67.9,53
2016-05-07 13:00:00,65,65,65,64,52.5194135763771,6,13,0,0,0,29.536,835,0.018,4.5,68.2,53
2016-05-07 13:05:00,64.6,64.6,64.6,65,52.56229884791,6,11,22.5,0,0,29.537,691,0,4.5,68.4,52
2016-05-07 13:10:00,65.1,65.1,65.1,64,52.6140701426895,4,12,45,0,0,29.536,788,0,4.8,68.5,52
2016-05-07 13:15:00,65,65,65,64,52.5194135763771,5,12,45,0,0,29.536,791,0,5,68.5,52
2016-05-07 13:20:00,64.8,64.8,64.8,64,52.3300971063846,7,14,22.5,0,0,29.534,776,0,4.8,68.7,52
2016-05-07 13:25:00,64.3,64.3,64.3,65,52.277774632017,7,11,0,0,0,29.534,761,0,4.8,68.7,52
2016-05-07 13:30:00,65.8,65.8,65.8,64,53.2766349599411,4,8,45,0,0,29.528,757,0,4.8,68.7,52
2016-05-07 13:35:00,65.7,65.7,65.7,63,52.7526478234927,5,11,45,0,0,29.526,746,0,4.6,68.9,52
2016-05-07 13:40:00,65.4,65.4,65.4,64,52.8980331671266,5,9,0,0,0,29.524,722,0,4.5,68.9,52
2016-05-07 13:45:00,65.7,65.7,65.7,63,52.7526478234927,4,12,315,0,0,29.525,691,0,4.3,69,52
2016-05-07 13:50:00,65.8,65.8,65.8,64,53.2766349599411,4,10,337.5,0,0,29.527,689,0,4.2,69,51
2016-05-07 13:55:00,65.8,65.8,65.8,63,52.8471156793723,5,10,315,0,0,29.526,721,0,4.2,69.2,51
2016-05-07 14:00:00,65.5,65.5,65.5,64,52.9926852838376,5,10,45,0,0,29.521,705,0.018,4.1,69.2,51
2016-05-07 14:05:00,65.1,65.1,65.1,64,52.6140701426895,7,11,22.5,0,0,29.521,671,0,3.9,69.2,51
2016-05-07 14:10:00,64.4,64.4,64.4,64,51.9514508163796,7,13,0,0,0,29.521,677,0,3.9,69.2,51
2016-05-07 14:15:00,64.8,64.8,64.8,65,52.7519762739135,4,9,0,0,0,29.523,685,0,3.9,69,51
2016-05-07 14:20:00,65.8,65.8,65.8,63,52.8471156793723,5,11,315,0,0,29.519,654,0,3.7,69.2,51
2016-05-07 14:25:00,65.3,65.3,65.3,64,52.8033799380446,6,11,22.5,0,0,29.514,647,0,3.6,69.4,51
2016-05-07 14:30:00,65.5,65.5,65.5,64,52.9926852838376,5,12,0,0,0,29.515,682,0,3.6,69.4,51
2016-05-07 14:35:00,65.1,65.1,65.1,64,52.6140701426895,4,10,22.5,0,0,29.516,633,0,3.4,69.4,51
2016-05-07 14:40:00,65.2,65.2,65.2,64,52.7087255965722,5,10,22.5,0,0,29.514,704,0,3.4,69.4,51
2016-05-07 14:45:00,64.9,64.9,64.9,64,52.4247558976154,7,13,0,0,0,29.515,665,0,3.3,69.6,50
2016-05-07 14:50:00,64.8,64.8,64.8,64,52.3300971063846,6,12,22.5,0,0,29.514,609,0,3.1,69.6,51
2016-05-07 14:55:00,65,65,65,63,52.0913406798023,6,12,0,0,0,29.513,578,0,2.9,69.6,50
2016-05-07 15:00:00,64.4,64.4,64.4,65,52.3726171142575,6,12,22.5,0,0,29.513,603,0.016,3,69.6,51
2016-05-07 15:05:00,64.6,64.6,64.6,65,52.56229884791,7,13,0,0,0,29.511,607,0,2.9,69.6,51
2016-05-07 15:10:00,64.6,64.6,64.6,65,52.56229884791,6,13,315,0,0,29.513,555,0,2.6,69.7,51
2016-05-07 15:15:00,64.4,64.4,64.4,65,52.3726171142575,7,18,337.5,0,0,29.509,578,0,2.6,69.7,50
2016-05-07 15:20:00,64.1,64.1,64.1,66,52.5030697473174,5,12,45,0,0,29.509,501,0,2.3,69.7,50
2016-05-07 15:25:00,64.8,64.8,64.8,65,52.7519762739135,5,11,45,0,0,29.51,511,0,2.2,69.9,50
2016-05-07 15:30:00,64.3,64.3,64.3,65,52.277774632017,6,10,0,0,0,29.512,536,0,2.2,69.9,50
2016-05-07 15:35:00,64.1,64.1,64.1,65,52.0880864366158,5,12,22.5,0,0,29.51,495,0,2,69.9,50
2016-05-07 15:40:00,64,64,64,65,51.9932407234184,6,10,45,0,0,29.51,459,0,1.8,69.9,49
2016-05-07 15:45:00,64,64,64,66,52.4080482394414,5,10,22.5,0,0,29.509,470,0,1.8,70.1,50
2016-05-07 15:50:00,63.5,63.5,63.5,65,51.5189960017298,6,12,22.5,0,0,29.512,471,0,1.7,70.1,49
2016-05-07 15:55:00,63,63,63,66,51.4577758621219,6,14,22.5,0,0,29.509,467,0,1.6,70.1,49
2016-05-07 16:00:00,62.9,62.9,62.9,66,51.362742894157,5,12,0,0,0,29.511,450,0.013,1.5,69.9,49
2016-05-07 16:05:00,62.5,62.5,62.5,67,51.3893217705602,6,12,22.5,0,0,29.512,432,0,1.4,69.9,49
2016-05-07 16:10:00,62.6,62.6,62.6,67,51.4845320112553,3,13,45,0,0,29.508,366,0,1.1,69.9,49
2016-05-07 16:15:00,61.6,61.6,61.6,68,50.9322669443507,7,13,22.5,0,0,29.51,212,0,0.8,69.6,49
2016-05-07 16:20:00,60.6,60.6,60.6,69,50.37137508401,6,11,337.5,0,0,29.509,241,0,0.9,69.6,49
2016-05-07 16:25:00,60.4,60.4,60.4,70,50.5679882756553,6,12,0,0,0,29.508,263,0,0.9,69.2,49
2016-05-07 16:30:00,60.3,60.3,60.3,70,50.4722512154213,5,12,270,0,0,29.508,179,0,0.7,69.2,49
2016-05-07 16:35:00,59.8,59.8,59.8,71,50.3754794433439,6,12,337.5,0,0,29.51,174,0,0.7,69.2,50
2016-05-07 16:40:00,59.8,59.8,59.8,71,50.3754794433439,5,10,337.5,0,0,29.509,326,0,0.9,69,49
2016-05-07 16:45:00,60,60,60,71,50.567289969241,6,12,0,0,0,29.507,324,0,0.8,69,49
2016-05-07 16:50:00,60.3,60.3,60.3,70,50.4722512154213,5,12,22.5,0,0,29.507,358,0,0.8,69,49
2016-05-07 16:55:00,60.2,60.2,60.2,70,50.3765132508471,7,14,0,0,0,29.506,398,0,0.9,68.9,50
2016-05-07 17:00:00,59.8,59.8,59.8,70,49.9935523488935,7,16,45,0,0,29.508,397,0.008,0.8,68.7,49
2016-05-07 17:05:00,59.8,59.8,59.8,70,49.9935523488935,6,11,292.5,0,0,29.507,380,0,0.7,68.7,49
2016-05-07 17:10:00,60.1,60.1,60.1,70,50.2807743819201,5,12,0,0,0,29.504,384,0,0.6,68.9,49
2016-05-07 17:15:00,59.7,59.7,59.7,71,50.2795728743955,6,12,0,0,0,29.505,396,0,0.6,69,49
2016-05-07 17:20:00,59,59,59,71,49.6082025119869,7,13,315,0,0,29.506,272,0,0,69.2,49
2016-05-07 17:25:00,59,59,59,71,49.6082025119869,6,14,315,0,0,29.507,182,0,0,69,49
2016-05-07 17:30:00,59,59,59,71,49.6082025119869,7,12,337.5,0,0,29.513,159,0,0,68.9,49
2016-05-07 17:35:00,58.7,58.7,58.7,72,49.6959034168782,5,11,292.5,0,0,29.514,145,0,0,68.5,49
2016-05-07 17:40:00,58.3,58.3,58.3,72,49.3115864720669,7,14,337.5,0,0,29.513,131,0,0,68.5,49
2016-05-07 17:45:00,57.8,57.8,57.8,73,49.2006187770088,7,12,315,0,0,29.516,116,0,0,68.2,50
2016-05-07 17:50:00,57.3,57.3,57.3,73,48.7193846305765,8,15,315,0,0,29.519,102,0,0,67.9,50
2016-05-07 17:55:00,56.8,56.8,56.8,74,48.6015752110061,5,13,45,0,0,29.516,88,0,0,67.5,50
2016-05-07 18:00:00,56.5,56.5,56.5,74,48.3123403265171,5,12,0,0,0,29.516,75,0.006,0,67.2,50
2016-05-07 18:05:00,56.4,56.4,56.4,74,48.215927155295,3,11,315,0,0,29.516,66,0,0,67,51
2016-05-07 18:10:00,55.9,55.9,55.9,75,48.0915978483298,8,14,337.5,0,0,29.516,58,0,0,66.7,51
2016-05-07 18:15:00,55.6,55.6,55.6,76,48.1549896856731,6,10,315,0,0,29.518,50,0,0,66.4,51
2016-05-07 18:20:00,55.2,55.2,55.2,76,47.7680680222039,7,14,337.5,0,0,29.514,42,0,0,66.1,51
2016-05-07 18:25:00,54.8,54.8,54.8,77,47.7289686426488,6,11,337.5,0,0,29.517,40,0,0,65.8,52
2016-05-07 18:30:00,54.4,54.4,54.4,78,47.6846973425542,6,11,0,0,0,29.516,37,0,0,65.6,52
2016-05-07 18:35:00,54.1,54.1,54.1,78,47.3935762855424,6,13,315,0,0,29.516,38,0,0,65.4,52
2016-05-07 18:40:00,53.8,53.8,53.8,79,47.4409877379158,4,10,270,0,0,29.518,40,0,0,65.1,52
2016-05-07 18:45:00,53.5,53.5,53.5,79,47.1494100835037,6,13,337.5,0,0,29.521,37,0,0,64.9,52
2016-05-07 18:50:00,53.1,53.1,53.1,79,46.7606313186464,7,16,315,0,0,29.523,33,0,0,64.6,53
2016-05-07 18:55:00,52.8,52.8,52.8,80,46.8023617853863,6,13,337.5,0,0,29.526,28,0,0,64.3,53
2016-05-07 19:00:00,52.5,52.5,52.5,80,46.5103262997759,7,12,337.5,0,0,29.525,24,0.002,0,64.1,53
2016-05-07 19:05:00,52.2,52.2,52.2,81,46.5470894791071,8,14,337.5,0,0,29.53,21,0,0,64,54
2016-05-07 19:10:00,51.9,51.9,51.9,81,46.254609104734,7,13,0,0,0,29.53,17,0,0,63.8,54
2016-05-07 19:15:00,51.7,51.7,51.7,82,46.3841526924408,5,9,337.5,0,0,29.531,15,0,0,63.5,54
2016-05-07 19:20:00,51.7,51.7,51.7,82,46.3841526924408,3,8,292.5,0,0,29.53,14,0,0,63.3,54
2016-05-07 19:25:00,51.5,51.5,51.5,82,46.1888743998296,5,10,315,0,0,29.53,14,0,0,63,55
2016-05-07 19:30:00,51.4,51.4,51.4,83,46.4118769276333,5,11,337.5,0,0,29.533,12,0,0,62.9,55
2016-05-07 19:35:00,51.4,51.4,51.4,83,46.4118769276333,4,11,292.5,0,0,29.539,9,0,0,63,55
2016-05-07 19:40:00,51.3,51.3,51.3,83,46.3140947707113,5,10,337.5,0,0,29.541,6,0,0,62.9,55
2016-05-07 19:45:00,51.1,51.1,51.1,83,46.1185289939118,6,13,337.5,0,0,29.538,0,0,0,62.9,55
2016-05-07 19:50:00,51,51,51,84,46.3374438669268,4,9,22.5,0,0,29.544,0,0,0,62.7,55
2016-05-07 19:55:00,51,51,51,84,46.3374438669268,3,10,0,0,0,29.545,0,0,0,62.4,56
2016-05-07 20:00:00,50.9,50.9,50.9,84,46.2395195598086,6,13,292.5,0,0,29.544,0,0.001,0,62.5,56
2016-05-07 20:05:00,50.8,50.8,50.8,84,46.141594795388,5,10,315,0,0,29.542,0,0,0,62.4,56
2016-05-07 20:10:00,50.8,50.8,50.8,84,46.141594795388,4,12,0,0,0,29.541,0,0,0,62.2,56
2016-05-07 20:15:00,50.6,50.6,50.6,85,46.2585854705918,6,10,315,0,0,29.541,0,0,0,62.2,56
2016-05-07 20:20:00,50.6,50.6,50.6,85,46.2585854705918,4,11,337.5,0,0,29.541,0,0,0,62.1,56
2016-05-07 20:25:00,50.5,50.5,50.5,85,46.1605206180157,6,13,0,0,0,29.542,0,0,0,61.9,57
2016-05-07 20:30:00,50.4,50.4,50.4,85,46.0624553382591,6,12,22.5,0,0,29.539,0,0,0,61.6,57
2016-05-07 20:35:00,50.3,50.3,50.3,85,45.9643896313191,6,12,0,0,0,29.539,0,0,0,61.3,57
2016-05-07 20:40:00,50.1,50.1,50.1,85,45.7682569358782,7,13,315,0,0,29.539,0,0,0,61.3,58
2016-05-07 20:45:00,50.1,50.1,50.1,86,46.0771884503267,6,10,337.5,0,0,29.543,0,0,0,61.1,58
2016-05-07 20:50:00,50,50,50,85,45.6701899473717,5,10,0,0,0,29.542,0,0,0,60.8,58
2016-05-07 20:55:00,49.9,48.1005371391989,49.9,86,45.8807796079839,5,10,337.5,0,0,29.542,0,0,0,61,58
2016-05-07 21:00:00,49.9,49.9,49.9,86,45.8807796079839,3,7,315,0,0,29.54,0,0.001,0,61,58
2016-05-07 21:05:00,49.9,48.1005371391989,49.9,86,45.8807796079839,5,11,22.5,0,0,29.543,0,0,0,60.8,58